weather.gov     
National Weather Service

Regional Weather Roundup
NWS Homepage
This page is being discontinued on March 12, 2014.
The same data is available at this site. Please update your bookmarks.
Thank you, and we apologize for the inconvenience.
Please send an email to SR-SRH.Webmaster@noaa.gov with any concerns.


Current Version
Previous Version:    01  02  03  04  05  06  07  08  09  10  11  12  13  14  15  16  17  18  19  20  21  22  23  24  25  26  
[Printable]
003
ASUS46 KSEW 190810
RWRWA

WASHINGTON REGIONAL WEATHER ROUNDUP
NATIONAL WEATHER SERVICE SEATTLE WA
1200 AM PST FRI DEC 19 2014

NOTE:"FAIR" INDICATES FEW OR NO CLOUDS BELOW 12,000 FEET WITH NO
SIGNIFICANT WEATHER AND/OR OBSTRUCTIONS TO VISIBILITY.

WAZ505-507>509-190900-
SEATTLE, TACOMA, EVERETT, AND VICINITY

CITY           SKY/WX    TMP DP  RH WIND       PRES   REMARKS
EVERETT        LGT RAIN  46  44  93 S16       29.76R
BOEING FIELD   LGT RAIN  51  46  83 S7G18     29.79R
RENTON         LGT RAIN  47  47 100 E5        29.79R
SEATAC AIRPORT LGT RAIN  49  46  90 S7        29.79R
JBLM-MCCHORD   LGT RAIN  48  48  99 S7        29.79R
PUYALLUP       NOT AVBL
JBLM-FT LEWIS  CLOUDY    46  46 100 S6        29.79R
TACOMA NARROWS LGT RAIN  48  45  89 S8        29.78R
$$

WAZ001-503-506-510-514-515-190900-
NORTH INTERIOR

CITY           SKY/WX    TMP DP  RH WIND       PRES   REMARKS
BELLINGHAM     RAIN      50  45  83 S13G22    29.71R
FRIDAY HARBOR  CLOUDY    49  46  90 SE9G17    29.71R
PORT ANGELES   CLOUDY    46  43  89 SW5       29.70R
NAS WHIDBEY    CLOUDY    51  45  79 SE14      29.73R
BURLINGTON     CLOUDY    50  46  87 S12G17    29.74R
$$

WAZ020-022-039-040-504-511-512-190900-
SOUTHWEST INTERIOR

CITY           SKY/WX    TMP DP  RH WIND       PRES   REMARKS
SHELTON        CLOUDY    47  44  90 SW5       29.75R
OLYMPIA        LGT RAIN  48  46  93 S3        29.79R
CHEHALIS       CLOUDY    48  48 100 S6        29.79S
KELSO          CLOUDY    48  45  87 SE5       29.85F
VANCOUVER      LGT RAIN  49  45  86 VRB5      29.87R
SCAPPOOSE, OR  LGT RAIN  45  44  97 SE7       29.83R
PORTLAND, OR   LGT RAIN  50  45  83 SW12      29.88R
$$

WAZ021-516-517-190900-
WASHINGTON COAST

CITY           SKY/WX    TMP DP  RH WIND       PRES   REMARKS
FORKS          CLOUDY    49  45  86 S9G23     29.70R
HOQUIAM        CLOUDY    50  47  89 SE13      29.76R
ASTORIA, OR    HVY RAIN  49  45  86 S9G20     29.79R FOG
$$

WAZ019-023-024-040-518-519-190900-
CASCADE MOUNTAINS AND COLUMBIA GORGE

CITY           SKY/WX    TMP DP  RH WIND       PRES   REMARKS
STAMPEDE PASS  NOT AVBL
TROUTDALE, OR  LGT RAIN  45  42  89 E3        29.88R
THE DALLES, OR CLOUDY    40  38  93 CALM      29.90S FOG
$$

WAZ026-027-041>044-520-521-190900-
EAST SLOPES

CITY           SKY/WX    TMP DP  RH WIND       PRES   REMARKS
OMAK           RAIN      33  32  96 CALM      29.91F FOG
WENATCHEE      CLOUDY    37  35  92 CALM      29.87F
ELLENSBURG     LGT RAIN  37  34  89 S3        29.84F
YAKIMA         CLOUDY    39  36  89 CALM      29.88F FOG
$$

WAZ028-034-035-190900-
COLUMBIA BASIN

CITY           SKY/WX    TMP DP  RH WIND       PRES   REMARKS
EPHRATA        LGT RAIN  38  36  92 N5        29.87F
MOSES LAKE     CLOUDY    38  37  97 CALM      29.89F
PASCO          LGT RAIN  38  38 100 CALM      29.92F FOG
HERMISTON, OR  CLOUDY    38  37  97 SE7       29.87F FOG
$$

WAZ036>038-190900-
NORTHEAST WASHINGTON

CITY           SKY/WX    TMP DP  RH WIND       PRES   REMARKS
SPOKANE GEIGER CLOUDY    39  36  89 SE7       29.90F
SPOKANE FELTS  CLOUDY    39  37  92 CALM      29.93F FOG
FAIRCHILD AFB  LGT RAIN  39  38  99 E7        29.89F
COEURDALENE,ID CLOUDY    37  34  87 NE6       29.93F
DEER PARK      CLOUDY    37  36  96 CALM      29.93F
$$

WAZ029>033-190900-
SOUTHEAST WASHINGTON

CITY           SKY/WX    TMP DP  RH WIND       PRES   REMARKS
PULLMAN        CLOUDY    40  35  83 E12       29.93F
LEWISTON, ID   LGT RAIN  44  37  76 E7        29.94F
WALLA WALLA    CLOUDY    39  38  96 E5        29.89S FOG
PENDLETON, OR  CLOUDY    38  37  97 NE5       29.86F FOG
$$




U.S. Dept. of Commerce
NOAA National Weather Service
1325 East West Highway
Silver Spring, MD 20910
E-mail: w-nws.webmaster@noaa.gov
Page last modified: May 16, 2007
NATIONAL WEATHER SERVICE: for Safety, for Work, for Fun - FOR LIFE